Content
SEND FEEDBACK

Daily
Averages
Monthly
Summary
United States of America

BURLINGTON, NORTH DAKOTA


Home > North America > United States > North Dakota
Elevation: 512 meters     Latitude: 48 16N     Longitude: 101 17W

WEATHER
 
SELECT A DAY
Number of Records: 203,961;   Date Range: 1/1/95 - 11/20/14
 
SHARE

PRINT THIS DATA

[ ← Previous Day ]
WEATHER ALMANAC - 25 DECEMBER, 2013
[ Next Day → ]
[ °F ]   °C
Weather ElementAverageHighLow
Temperature-3.8 °C-1.7 °C (1:07 am)-6.7 °C (4:54 am)
Dewpoint-7.4 °C-4.4 °C (1:07 am)-10.6 °C (4:54 am)
Humidity76.9 %88 % (11:54 pm)69 % (2:54 am)
Barometer1020 hPa1023.4 hPa (8:54 am)1015.2 hPa (1:07 am)
Wind Speed22.5 km/h46.3 km/h (2:54 am)
Wind Gust61.2 km/h (2:54 am)
Weather ElementAverage
Visibility15.8 km
Wind DirectionWSW (262.2 °)

Weather ElementTotal
Precipitation---
Heating Degree Days22.6 (Base 18.3)
Averaged from 36 records on 25 December, 2013
WEATHER CONDITIONS BREAKOUT
WIND DIRECTION BREAKOUT
WEATHER BY HOUR - 25 DECEMBER, 2013
[ °F ]   °C
Local TimeTemperatureDewpointHumidityBarometerVisibilityWind DirectionWind SpeedGust SpeedPrecipitationEventsConditions
1:07 AM-1.7 °C-4.4 °C82 %1015.2 hPa16.1 kmWNW (300°)31.5 km/h44.4 km/hOvercast
1:20 AM-1.7 °C-4.4 °C82 %1015.6 hPa16.1 kmWNW (300°)31.5 km/hOvercast
1:54 AM-2.2 °C-5.6 °C78 %1018.6 hPa16.1 kmWNW (300°)35.2 km/h46.3 km/hOvercast
2:54 AM-2.8 °C-7.8 °C69 %1019.6 hPa14.5 kmNW (310°)46.3 km/h61.2 km/h0 mmOvercast
3:54 AM-4.4 °C-8.3 °C75 %1020.7 hPa14.5 kmNW (310°)40.7 km/h53.8 km/h0 mmSnowLight Snow
4:01 AM-5 °C-8.9 °C74 %1018.3 hPa14.5 kmNW (310°)42.6 km/h53.8 km/h0 mmSnowLight Snow
4:54 AM-6.7 °C-10.6 °C74 %1022 hPa16.1 kmNW (310°)22.2 km/h0 mmClear
5:54 AM-5.6 °C-9.4 °C75 %1022 hPa16.1 kmWNW (300°)20.4 km/hOvercast
6:54 AM-5 °C-8.3 °C78 %1022.4 hPa16.1 kmWest (270°)20.4 km/h0 mmOvercast
7:07 AM-4.4 °C-7.8 °C77 %1020 hPa14.5 kmWest (280°)20.4 km/h0 mmSnowLight Snow
7:47 AM-3.9 °C-6.7 °C81 %1020.3 hPa16.1 kmWNW (300°)29.6 km/h0 mmOvercast
7:54 AM-3.9 °C-6.7 °C81 %1022.7 hPa16.1 kmWNW (290°)33.3 km/h0 mmOvercast
8:25 AM-3.9 °C-7.2 °C78 %1020.7 hPa16.1 kmWNW (300°)24.1 km/hOvercast
8:54 AM-3.9 °C-7.8 °C75 %1023.4 hPa16.1 kmWNW (300°)20.4 km/hOvercast
9:54 AM-3.3 °C-8.3 °C69 %1023.4 hPa16.1 kmWNW (290°)27.8 km/hOvercast
10:20 AM-4.4 °C-8.3 °C75 %1020.3 hPa16.1 kmWest (280°)20.4 km/hMostly Cloudy
10:38 AM-3.9 °C-8.3 °C72 %1020.7 hPa16.1 kmWest (280°)18.5 km/hMostly Cloudy
10:54 AM-4.4 °C-8.3 °C75 %1023 hPa16.1 kmWest (280°)16.7 km/hMostly Cloudy
11:05 AM-3.9 °C-8.3 °C72 %1020.3 hPa16.1 kmWest (270°)16.7 km/hScattered Clouds
11:47 AM-2.8 °C-7.2 °C72 %1019.6 hPa16.1 kmWSW (240°)16.7 km/hMostly Cloudy
11:54 AM-3.3 °C-7.8 °C71 %1022 hPa16.1 kmWSW (250°)22.2 km/hMostly Cloudy
12:54 PM-3.3 °C-7.2 °C75 %1021.7 hPa16.1 kmWest (280°)25.9 km/hMostly Cloudy
1:06 PM-3.3 °C-6.7 °C78 %1019 hPa16.1 kmWest (270°)25.9 km/hMostly Cloudy
1:31 PM-3.3 °C-6.7 °C78 %1018.3 hPa16.1 kmWest (270°)20.4 km/hOvercast
1:54 PM-2.8 °C-6.1 °C78 %1021 hPa16.1 kmWest (260°)24.1 km/hOvercast
2:24 PM-2.8 °C-6.7 °C75 %1017.6 hPa16.1 kmWSW (250°)25.9 km/hPartly Cloudy
2:54 PM-2.8 °C-7.2 °C72 %1020 hPa16.1 kmWSW (250°)24.1 km/hClear
3:54 PM-3.3 °C-7.2 °C75 %1020 hPa16.1 kmWest (260°)25.9 km/hClear
4:54 PM-3.9 °C-7.8 °C75 %1020 hPa16.1 kmWest (260°)18.5 km/hClear
5:54 PM-3.9 °C-7.2 °C78 %1019.6 hPa16.1 kmWest (270°)16.7 km/hMostly Cloudy
6:54 PM-3.9 °C-7.2 °C78 %1019.3 hPa16.1 kmWSW (250°)13 km/hOvercast
7:54 PM-3.9 °C-6.7 °C81 %1018.3 hPa16.1 kmWest (280°)9.3 km/hOvercast
8:54 PM-5.6 °C-7.8 °C85 %1017.9 hPa16.1 kmSW (220°)13 km/hMostly Cloudy
9:54 PM-5 °C-7.2 °C85 %1017.6 hPa16.1 kmWSW (250°)9.3 km/hOvercast
10:54 PM-4.4 °C-7.2 °C81 %1017.6 hPa12.9 kmCalmOvercast
11:54 PM-5 °C-6.7 °C88 %1016.9 hPa11.3 kmCalmOvercast
Hourly data recorded from KMOT, located 0 kilometers away from Burlington, North Dakota







STORIES FROM OUR PARTNERS